DW4466 Weather Reports


Display with metric or nautical units.
time (UTC)temp
F
wind
direction
speed
MPH
gust
MPH
rain 1hr
in
rain 24hr
in
rain mn
in
humidity
%
barometer
mb
20210117192611 44 327 5.0 0.0 0.00 0.00 0.00 51 1007.5
20210117192031 44 308 7.0 0.0 0.00 0.00 0.00 51 1007.6
20210117191601 45 306 8.0 0.0 0.00 0.00 0.00 51 1007.6
20210117191009 44 309 9.0 0.0 0.00 0.00 0.00 51 1007.6
20210117190541 44 293 7.0 0.0 0.00 0.00 0.00 51 1007.6
20210117190127 44 305 6.0 0.0 0.00 0.00 0.00 52 1007.5
20210117185526 44 327 5.0 0.0 0.00 0.00 0.00 53 1007.6
20210117185020 45 282 5.0 0.0 0.00 0.00 0.00 53 1007.5
20210117184558 45 290 5.0 0.0 0.00 0.00 0.00 53 1007.4
20210117184054 45 317 4.0 0.0 0.00 0.00 0.00 52 1007.6
20210117183523 45 302 4.0 0.0 0.00 0.00 0.00 54 1007.7
20210117183046 44 317 7.0 0.0 0.00 0.00 0.00 55 1007.7
20210117182510 44 323 8.0 0.0 0.00 0.00 0.00 54 1007.7
20210117182045 45 332 7.0 0.0 0.00 0.00 0.00 55 1007.8
20210117181704 44 313 8.0 0.0 0.00 0.00 0.00 54 1007.9
20210117181025 45 312 8.0 0.0 0.00 0.00 0.00 53 1007.9
20210117180539 45 306 7.0 0.0 0.00 0.00 0.00 53 1008.0
20210117180124 45 333 6.0 0.0 0.00 0.00 0.00 55 1007.9
20210117175517 45 337 7.0 0.0 0.00 0.00 0.00 55 1007.9
20210117175038 44 288 7.0 0.0 0.00 0.00 0.00 56 1008.1
20210117174942 44 304 7.0 0.0 0.00 0.00 0.00 57 1008.1
20210117174021 44 267 6.0 0.0 0.00 0.00 0.00 56 1008.1
20210117173538 44 321 7.0 0.0 0.00 0.00 0.00 57 1008.1
20210117173201 44 329 9.0 0.0 0.00 0.00 0.00 56 1008.1
20210117172520 43 332 10.0 0.0 0.00 0.00 0.00 55 1008.3
20210117172044 44 300 9.0 0.0 0.00 0.00 0.00 58 1008.3
20210117171642 44 279 9.0 0.0 0.00 0.00 0.00 57 1008.4
20210117171027 44 299 7.0 0.0 0.00 0.00 0.00 57 1008.4
20210117170544 43 311 6.0 0.0 0.00 0.00 0.00 58 1008.4
20210117165548 42 327 5.0 0.0 0.00 0.00 0.00 60 1008.6
20210117165050 42 279 3.0 0.0 0.00 0.00 0.00 60 1008.8
20210117164530 42 322 2.0 0.0 0.00 0.00 0.00 62 1009.0
20210117164029 41 313 1.0 0.0 0.00 0.00 0.00 62 1008.9
20210117163550 41 248 2.0 0.0 0.00 0.00 0.00 62 1008.9
20210117163139 41 248 3.0 0.0 0.00 0.00 0.00 62 1009.0
20210117162517 41 276 2.0 0.0 0.00 0.00 0.00 63 1009.0
20210117162043 41 236 1.0 0.0 0.00 0.00 0.00 63 1009.0
20210117161635 40 292 2.0 0.0 0.00 0.00 0.00 63 1009.1
20210117161019 40 238 3.0 0.0 0.00 0.00 0.00 63 1009.0
20210117160540 40 239 3.0 0.0 0.00 0.00 0.00 63 1009.1
20210117155527 39 235 1.0 0.0 0.00 0.00 0.00 63 1009.1
20210117155046 39 278 2.0 0.0 0.00 0.00 0.00 63 1009.2
20210117154509 39 300 2.0 0.0 0.00 0.00 0.00 64 1009.3
20210117154032 38 294 2.0 0.0 0.00 0.00 0.00 64 1009.4
20210117153552 38 229 2.0 0.0 0.00 0.00 0.00 64 1009.4
20210117153153 38 236 2.0 0.0 0.00 0.00 0.00 64 1009.5
20210117152541 38 238 2.0 0.0 0.00 0.00 0.00 64 1009.6
20210117152125 38 238 2.0 0.0 0.00 0.00 0.00 64 1009.5
20210117151617 38 243 2.0 0.0 0.00 0.00 0.00 64 1009.5
20210117151104 37 239 2.0 0.0 0.00 0.00 0.00 64 1009.6
20210117150522 37 264 1.0 0.0 0.00 0.00 0.00 64 1009.6
20210117150122 37 265 0.0 0.0 0.00 0.00 0.00 64 1009.7
20210117145555 37 265 1.0 0.0 0.00 0.00 0.00 64 1009.7
20210117145026 37 285 1.0 0.0 0.00 0.00 0.00 64 1009.8
20210117144725 37 275 1.0 0.0 0.00 0.00 0.00 64 1009.8
20210117144008 37 245 2.0 0.0 0.00 0.00 0.00 64 1009.7
20210117143536 37 263 2.0 0.0 0.00 0.00 0.00 64 1009.7
20210117143428 37 275 1.0 0.0 0.00 0.00 0.00 64 1009.6
20210117142537 37 275 0.0 0.0 0.00 0.00 0.00 64 1009.5
20210117142041 36 257 1.0 0.0 0.00 0.00 0.00 64 1009.6
20210117141621 36 275 1.0 0.0 0.00 0.00 0.00 64 1009.4
20210117141012 35 273 1.0 0.0 0.00 0.00 0.00 64 1009.3
20210117140527 35 267 1.0 0.0 0.00 0.00 0.00 63 1009.2
20210117140120 34 253 1.0 0.0 0.00 0.00 0.00 63 1009.2
20210117135500 34 313 1.0 0.0 0.00 0.00 0.00 64 1009.2
20210117135033 34 283 1.0 0.0 0.00 0.00 0.00 63 1009.1
20210117134614 34 265 2.0 0.0 0.00 0.00 0.00 63 1009.0
20210117134020 33 256 1.0 0.0 0.00 0.00 0.00 64 1008.8
20210117133540 33 259 1.0 0.0 0.00 0.00 0.00 64 1009.0
20210117133130 33 282 1.0 0.0 0.00 0.00 0.00 64 1008.7
20210117132527 33 298 0.0 0.0 0.00 0.00 0.00 64 1008.6
20210117132047 33 298 1.0 0.0 0.00 0.00 0.00 64 1008.6
20210117131520 33 298 1.0 0.0 0.00 0.00 0.00 64 1008.4
20210117131025 33 306 0.0 0.0 0.00 0.00 0.00 62 1008.3
20210117130550 33 271 0.0 0.0 0.00 0.00 0.00 62 1008.3
20210117130018 33 272 0.0 0.0 0.00 0.00 0.00 63 1008.2
20210117125525 33 272 0.0 0.0 0.00 0.00 0.00 64 1008.1
20210117125038 33 272 0.0 0.0 0.00 0.00 0.00 64 1008.0
20210117124733 33 272 0.0 0.0 0.00 0.00 0.00 64 1007.9
20210117124022 33 267 0.0 0.0 0.00 0.00 0.00 64 1007.8
20210117123602 33 266 1.0 0.0 0.00 0.00 0.00 64 1007.9
20210117123145 33 259 0.0 0.0 0.00 0.00 0.00 64 1007.8
20210117122519 33 273 1.0 0.0 0.00 0.00 0.00 64 1007.8
20210117122042 33 278 1.0 0.0 0.00 0.00 0.00 64 1007.7
20210117121643 33 313 1.0 0.0 0.00 0.00 0.00 64 1007.6
20210117121028 33 264 1.0 0.0 0.00 0.00 0.00 64 1007.6
20210117120540 33 290 1.0 0.0 0.00 0.00 0.00 64 1007.6
20210117120204 33 294 1.0 0.0 0.00 0.00 0.00 64 1007.6
20210117115529 33 275 1.0 0.0 0.00 0.00 0.00 64 1007.5
20210117115100 33 265 1.0 0.0 0.00 0.00 0.00 64 1007.5
20210117114521 33 282 0.0 0.0 0.00 0.00 0.00 64 1007.5
20210117114039 33 300 0.0 0.0 0.00 0.00 0.00 64 1007.3
20210117113646 33 300 0.0 0.0 0.00 0.00 0.00 65 1007.3
20210117113015 32 293 0.0 0.0 0.00 0.00 0.00 65 1007.2
20210117112537 32 310 1.0 0.0 0.00 0.00 0.00 64 1007.2
20210117112119 33 323 0.0 0.0 0.00 0.00 0.00 64 1007.3
20210117111647 33 259 1.0 0.0 0.00 0.00 0.00 64 1007.2
20210117111108 33 259 1.0 0.0 0.00 0.00 0.00 64 1007.1
20210117110548 32 255 1.0 0.0 0.00 0.00 0.00 64 1007.1
20210117110034 32 265 1.0 0.0 0.00 0.00 0.00 64 1007.1
20210117105547 32 269 1.0 0.0 0.00 0.00 0.00 64 1007.1
20210117105050 32 287 0.0 0.0 0.00 0.00 0.00 64 1007.1
20210117104523 32 287 0.0 0.0 0.00 0.00 0.00 64 1007.1
20210117104032 33 255 1.0 0.0 0.00 0.00 0.00 65 1007.0
20210117103538 32 248 1.0 0.0 0.00 0.00 0.00 65 1006.9
20210117103131 33 248 1.0 0.0 0.00 0.00 0.00 65 1006.9
20210117102031 33 238 1.0 0.0 0.00 0.00 0.00 65 1006.9
20210117101637 33 239 1.0 0.0 0.00 0.00 0.00 65 1006.9
20210117101012 33 255 0.0 0.0 0.00 0.00 0.00 65 1006.8
20210117100533 33 265 0.0 0.0 0.00 0.00 0.00 65 1006.7
20210117100115 33 265 0.0 0.0 0.00 0.00 0.00 65 1006.8
20210117095520 33 265 0.0 0.0 0.00 0.00 0.00 65 1006.7
20210117095046 33 265 1.0 0.0 0.00 0.00 0.00 65 1006.8
20210117094511 33 261 1.0 0.0 0.00 0.00 0.00 64 1006.7
20210117094036 33 266 0.0 0.0 0.00 0.00 0.00 65 1006.5
20210117093609 33 280 1.0 0.0 0.00 0.00 0.00 65 1006.4
20210117093033 33 280 2.0 0.0 0.00 0.00 0.00 64 1006.4
20210117092529 33 250 2.0 0.0 0.00 0.00 0.00 64 1006.4
20210117092113 33 276 2.0 0.0 0.00 0.00 0.00 64 1006.6
20210117091024 33 250 2.0 0.0 0.00 0.00 0.00 64 1006.7
20210117090607 33 240 3.0 0.0 0.00 0.00 0.00 64 1006.7
20210117090027 33 240 2.0 0.0 0.00 0.00 0.00 64 1006.7
20210117085528 33 252 2.0 0.0 0.00 0.00 0.00 64 1006.8
20210117085057 33 264 2.0 0.0 0.00 0.00 0.00 64 1006.7
20210117084612 33 236 1.0 0.0 0.00 0.00 0.00 64 1006.7
20210117084052 33 257 1.0 0.0 0.00 0.00 0.00 64 1006.6
20210117083516 33 236 0.0 0.0 0.00 0.00 0.00 65 1006.5
20210117083116 33 236 0.0 0.0 0.00 0.00 0.00 65 1006.4
20210117082609 33 236 1.0 0.0 0.00 0.00 0.00 65 1006.4
20210117082008 33 236 1.0 0.0 0.00 0.00 0.00 65 1006.4
20210117081536 33 236 1.0 0.0 0.00 0.00 0.00 64 1006.5
20210117081055 33 236 1.0 0.0 0.00 0.00 0.00 64 1006.6
20210117080511 33 236 1.0 0.0 0.00 0.00 0.00 64 1006.7
20210117080144 33 236 2.0 0.0 0.00 0.00 0.00 64 1006.6
20210117075554 34 236 2.0 0.0 0.00 0.00 0.00 64 1006.6
20210117075025 34 244 2.0 0.0 0.00 0.00 0.00 64 1006.7
20210117074613 33 245 1.0 0.0 0.00 0.00 0.00 64 1006.6
20210117073520 33 255 1.0 0.0 0.00 0.00 0.00 64 1006.5
20210117073111 33 252 0.0 0.0 0.00 0.00 0.00 64 1006.3
20210117072032 33 277 0.0 0.0 0.00 0.00 0.00 64 1006.2
20210117071616 33 283 0.0 0.0 0.00 0.00 0.00 64 1006.2
20210117071010 33 283 0.0 0.0 0.00 0.00 0.00 64 1006.1
20210117070552 33 292 0.0 0.0 0.00 0.00 0.00 65 1006.0
20210117070256 33 273 0.0 0.0 0.00 0.00 0.00 65 1006.1
20210117065535 33 265 0.0 0.0 0.00 0.00 0.00 65 1006.0
20210117065044 33 266 0.0 0.0 0.00 0.00 0.00 64 1005.9
20210117064519 33 303 1.0 0.0 0.00 0.00 0.00 64 1005.8
20210117064046 33 303 2.0 0.0 0.00 0.00 0.00 64 1005.8
20210117063600 33 309 2.0 0.0 0.00 0.00 0.00 64 1005.9
20210117063049 33 319 3.0 0.0 0.00 0.00 0.00 64 1005.7
20210117062546 33 314 3.0 0.0 0.00 0.00 0.00 64 1005.7
20210117061540 33 319 2.0 0.0 0.00 0.00 0.00 64 1005.6
20210117061046 33 299 3.0 0.0 0.00 0.00 0.00 64 1005.5
20210117060543 33 322 3.0 0.0 0.00 0.00 0.00 64 1005.5
20210117060154 33 315 2.0 0.0 0.00 0.00 0.00 64 1005.5
20210117055512 33 288 1.0 0.0 0.00 0.00 0.00 64 1005.4
20210117055025 33 292 1.0 0.0 0.00 0.00 0.00 64 1005.3
20210117054622 33 262 0.0 0.0 0.00 0.00 0.00 64 1005.2
20210117054030 33 290 0.0 0.0 0.00 0.00 0.00 64 1005.2
20210117053531 33 290 0.0 0.0 0.00 0.00 0.00 64 1005.2
20210117053047 33 297 0.0 0.0 0.00 0.00 0.00 64 1005.2
20210117052019 34 323 1.0 0.0 0.00 0.00 0.00 63 1005.2
20210117051745 34 325 1.0 0.0 0.00 0.00 0.00 63 1005.2
20210117051017 34 318 2.0 0.0 0.00 0.00 0.00 63 1005.1
20210117050528 34 305 2.0 0.0 0.00 0.00 0.00 63 1005.2
20210117050118 34 310 2.0 0.0 0.00 0.00 0.00 63 1005.1
20210117045517 34 314 2.0 0.0 0.00 0.00 0.00 63 1005.1
20210117045038 34 300 2.0 0.0 0.00 0.00 0.00 63 1005.1
20210117044704 34 313 4.0 0.0 0.00 0.00 0.00 63 1005.1
20210117044023 34 348 6.0 0.0 0.00 0.00 0.00 63 1005.0
20210117043542 34 327 7.0 0.0 0.00 0.00 0.00 63 1004.8
20210117042521 34 317 8.0 0.0 0.00 0.00 0.00 62 1004.7
20210117042051 34 300 7.0 0.0 0.00 0.00 0.00 62 1004.6
20210117041022 35 322 9.0 0.0 0.00 0.00 0.00 62 1004.6
20210117040544 35 336 10.0 0.0 0.00 0.00 0.00 61 1004.5
20210117040214 35 327 9.0 0.0 0.00 0.00 0.00 62 1004.4
20210117035527 34 322 8.0 0.0 0.00 0.00 0.00 62 1004.4
20210117035048 34 329 9.0 0.0 0.00 0.00 0.00 62 1004.3
20210117034800 35 311 10.0 0.0 0.00 0.00 0.00 62 1004.4
20210117034041 35 314 9.0 0.0 0.00 0.00 0.00 62 1004.4
20210117033558 35 324 9.0 0.0 0.00 0.00 0.00 61 1004.5
20210117033045 35 294 9.0 0.0 0.00 0.00 0.00 61 1004.4
20210117032546 35 301 8.0 0.0 0.00 0.00 0.00 61 1004.3
20210117032010 35 356 7.0 0.0 0.00 0.00 0.00 61 1004.4
20210117031545 35 344 6.0 0.0 0.00 0.00 0.00 61 1004.6
20210117031052 35 322 7.0 0.0 0.00 0.00 0.00 61 1004.5
20210117030512 35 317 6.0 0.0 0.00 0.00 0.00 61 1004.5
20210117030108 35 313 6.0 0.0 0.00 0.00 0.00 62 1004.4
20210117025549 35 313 6.0 0.0 0.00 0.00 0.00 61 1004.3
20210117025028 35 296 4.0 0.0 0.00 0.00 0.00 62 1004.3
20210117024609 35 308 4.0 0.0 0.00 0.00 0.00 61 1004.3
20210117024104 35 328 4.0 0.0 0.00 0.00 0.00 61 1004.3
20210117023538 35 329 5.0 0.0 0.00 0.00 0.00 62 1004.2
20210117023059 35 320 7.0 0.0 0.00 0.00 0.00 61 1004.3
20210117022528 35 329 7.0 0.0 0.00 0.00 0.00 61 1004.2
20210117022032 35 323 5.0 0.0 0.00 0.00 0.00 61 1004.2
20210117021711 35 329 4.0 0.0 0.00 0.00 0.00 61 1004.2
20210117021027 35 319 5.0 0.0 0.00 0.00 0.00 61 1004.3
20210117020555 35 318 6.0 0.0 0.00 0.00 0.00 61 1004.2
20210117020033 36 331 6.0 0.0 0.00 0.00 0.00 60 1004.1
20210117015535 36 310 7.0 0.0 0.00 0.00 0.00 60 1004.0
20210117015056 36 317 9.0 0.0 0.00 0.00 0.00 60 1003.9
20210117014523 36 317 9.0 0.0 0.00 0.00 0.00 60 1003.8
20210117014039 36 315 9.0 0.0 0.00 0.00 0.00 61 1003.8
20210117013553 36 302 8.0 0.0 0.00 0.00 0.00 61 1003.7
20210117013135 35 325 5.0 0.0 0.00 0.00 0.00 61 1003.6
20210117012552 36 342 6.0 0.0 0.00 0.00 0.00 61 1003.6
20210117012021 36 299 6.0 0.0 0.00 0.00 0.00 61 1003.6
20210117011638 36 323 5.0 0.0 0.00 0.00 0.00 61 1003.5
20210117011021 36 331 5.0 0.0 0.00 0.00 0.00 62 1003.4
20210117010527 36 328 5.0 0.0 0.00 0.00 0.00 62 1003.4
20210117010126 36 309 5.0 0.0 0.00 0.00 0.00 63 1003.5
20210117005528 36 312 5.0 0.0 0.00 0.00 0.00 63 1003.5
20210117005040 36 309 5.0 0.0 0.00 0.00 0.00 64 1003.5
20210117004559 36 329 5.0 0.0 0.00 0.00 0.00 64 1003.6
20210117004043 36 308 7.0 0.0 0.00 0.00 0.00 63 1003.4
20210117003522 37 327 8.0 0.0 0.00 0.00 0.00 62 1003.3
20210117003038 37 317 9.0 0.0 0.00 0.00 0.00 61 1003.3
20210117002555 37 319 10.0 0.0 0.00 0.00 0.00 61 1003.2
20210117002036 38 321 11.0 0.0 0.00 0.00 0.00 61 1003.2
20210117001648 37 324 10.0 0.0 0.00 0.00 0.00 61 1003.2
20210117001011 37 324 9.0 0.0 0.00 0.00 0.00 61 1003.1
20210117000546 37 331 7.0 0.0 0.00 0.00 0.00 62 1003.1
20210117000132 37 319 6.0 0.0 0.00 0.00 0.00 63 1003.1
20210116235514 37 334 5.0 0.0 0.00 0.00 0.00 63 1003.1
20210116235040 38 310 6.0 0.0 0.00 0.00 0.00 63 1003.0
20210116234617 38 329 9.0 0.0 0.00 0.00 0.00 63 1002.9
20210116234023 38 331 10.0 0.0 0.00 0.00 0.00 63 1002.9
20210116233544 38 311 7.0 0.0 0.00 0.00 0.00 64 1002.8
20210116233015 37 299 6.0 0.0 0.00 0.00 0.00 63 1002.8
20210116232545 38 329 5.0 0.0 0.00 0.00 0.00 63 1002.7
20210116232021 37 318 4.0 0.0 0.00 0.00 0.00 63 1002.6
20210116231555 38 312 4.0 0.0 0.00 0.00 0.00 63 1002.6
20210116231058 38 296 4.0 0.0 0.00 0.00 0.00 63 1002.5
20210116230527 38 302 5.0 0.0 0.00 0.00 0.00 63 1002.3
20210116230108 39 313 6.0 0.0 0.00 0.00 0.00 63 1002.4
20210116225510 39 307 6.0 0.0 0.00 0.00 0.00 63 1002.3
20210116225039 39 319 6.0 0.0 0.00 0.00 0.00 62 1002.3
20210116224608 39 323 7.0 0.0 0.00 0.00 0.00 62 1002.1
20210116224021 40 303 8.0 0.0 0.00 0.00 0.00 62 1002.0
20210116223553 40 284 7.0 0.0 0.00 0.00 0.00 62 1001.9
20210116223019 40 335 7.0 0.0 0.00 0.00 0.00 61 1001.9
20210116222527 40 343 9.0 0.0 0.00 0.00 0.00 60 1001.7
20210116222059 40 309 9.0 0.0 0.00 0.00 0.00 60 1001.6
20210116221542 40 14 9.0 0.0 0.00 0.00 0.00 60 1001.5
20210116221042 40 3 9.0 0.0 0.00 0.00 0.00 59 1001.4
20210116220521 41 329 10.0 0.0 0.00 0.00 0.00 59 1001.3
20210116220204 41 324 12.0 0.0 0.00 0.00 0.00 58 1001.2
20210116215553 41 308 12.0 0.0 0.00 0.00 0.00 58 1001.1
20210116215037 41 330 10.0 0.0 0.00 0.00 0.00 58 1001.0
20210116214637 41 360 7.0 0.0 0.00 0.00 0.00 58 1000.8
20210116214111 41 325 7.0 0.0 0.00 0.00 0.00 58 1000.7
20210116213532 41 329 8.0 0.0 0.00 0.00 0.00 59 1000.7
20210116213137 41 347 8.0 0.0 0.00 0.00 0.00 59 1000.5
20210116212554 41 318 8.0 0.0 0.00 0.00 0.00 58 1000.4
20210116212021 41 348 8.0 0.0 0.00 0.00 0.00 59 1000.4
20210116211639 41 344 7.0 0.0 0.00 0.00 0.00 58 1000.3
20210116211047 41 345 5.0 0.0 0.00 0.00 0.00 60 1000.2
20210116210511 41 353 4.0 0.0 0.00 0.00 0.00 61 1000.2
20210116210042 41 328 6.0 0.0 0.00 0.00 0.00 61 1000.2
20210116205553 41 338 6.0 0.0 0.00 0.00 0.00 61 1000.1
20210116205036 41 329 6.0 0.0 0.00 0.00 0.00 61 1000.0
20210116204637 42 353 5.0 0.0 0.00 0.00 0.00 61 1000.0
20210116204109 42 319 5.0 0.0 0.00 0.00 0.00 61 999.9
20210116203538 42 329 4.0 0.0 0.00 0.00 0.00 60 999.8
20210116203324 42 318 5.0 0.0 0.00 0.00 0.00 60 999.7
20210116202519 42 325 5.0 0.0 0.00 0.00 0.00 60 999.6
20210116202055 42 322 4.0 0.0 0.00 0.00 0.00 59 999.5
20210116201527 42 340 2.0 0.0 0.00 0.00 0.00 60 999.4
20210116201044 42 315 3.0 0.0 0.00 0.00 0.00 61 999.4
20210116200624 42 341 4.0 0.0 0.00 0.00 0.00 60 999.3
20210116200039 42 338 5.0 0.0 0.00 0.00 0.00 61 999.3
20210116195538 42 299 6.0 0.0 0.00 0.00 0.00 59 999.3
20210116195053 42 337 5.0 0.0 0.00 0.00 0.00 57 999.2
20210116194557 42 331 8.0 0.0 0.00 0.00 0.00 58 999.2
20210116194050 42 356 9.0 0.0 0.00 0.00 0.00 57 999.2
20210116193618 42 310 9.0 0.0 0.00 0.00 0.00 56 999.2
20210116193108 42 333 10.0 0.0 0.00 0.00 0.00 56 999.1